Time,TemperatureF,DewpointF,PressureIn,WindDirection,WindDirectionDegrees,WindSpeedMPH,WindSpeedGustMPH,Humidity,HourlyPrecipIn,Conditions,Clouds,dailyrainin,SoftwareType,DateUTC
2013-06-23 00:00:00,64.6,61.8,30.20,SSE,158,1.8,1.8,90,0.00,,,0.00,WUHU216HW,2013-06-23 05:00:00,
2013-06-23 00:05:00,64.6,61.8,30.20,SSE,158,1.8,1.8,90,0.00,,,0.00,WUHU216HW,2013-06-23 05:05:00,
2013-06-23 00:30:00,64.8,61.9,30.19,SSE,158,0.0,0.0,90,0.00,,,0.00,WUHU216HW,2013-06-23 05:30:00,
2013-06-23 00:35:00,64.8,61.9,30.19,SSE,158,0.0,0.0,90,0.00,,,0.00,WUHU216HW,2013-06-23 05:35:00,
2013-06-23 01:00:00,65.2,62.2,30.19,SE,135,0.0,0.0,90,0.00,,,0.00,WUHU216HW,2013-06-23 06:00:00,
2013-06-23 01:01:00,65.2,62.2,30.19,SE,135,0.0,0.0,90,0.00,,,0.00,WUHU216HW,2013-06-23 06:01:00,
2013-06-23 01:06:00,65.2,62.2,30.19,SE,135,0.0,0.0,90,0.00,,,0.00,WUHU216HW,2013-06-23 06:06:00,
2013-06-23 01:30:00,65.3,62.4,30.17,SSE,158,0.9,0.9,90,0.00,,,0.00,WUHU216HW,2013-06-23 06:30:00,
2013-06-23 01:35:00,65.3,62.4,30.17,SSE,158,0.9,0.9,90,0.00,,,0.00,WUHU216HW,2013-06-23 06:35:00,
2013-06-23 02:00:00,65.5,62.6,30.17,ESE,113,0.2,0.2,90,0.00,,,0.00,WUHU216HW,2013-06-23 07:00:00,
2013-06-23 02:05:00,65.5,62.6,30.17,ESE,113,0.2,0.2,90,0.00,,,0.00,WUHU216HW,2013-06-23 07:05:00,
2013-06-23 02:30:00,65.5,62.6,30.18,WSW,248,0.4,0.4,90,0.00,,,0.00,WUHU216HW,2013-06-23 07:30:00,
2013-06-23 02:35:00,65.5,62.6,30.18,WSW,248,0.4,0.4,90,0.00,,,0.00,WUHU216HW,2013-06-23 07:35:00,
2013-06-23 03:00:00,65.7,63.0,30.19,WNW,293,2.7,2.7,91,0.00,,,0.00,WUHU216HW,2013-06-23 08:00:00,
2013-06-23 03:05:00,65.7,63.0,30.19,WNW,293,2.7,2.7,91,0.00,,,0.00,WUHU216HW,2013-06-23 08:05:00,
2013-06-23 03:30:00,65.7,63.0,30.17,South,180,0.4,0.4,91,0.00,,,0.00,WUHU216HW,2013-06-23 08:30:00,
2013-06-23 03:35:00,65.7,63.0,30.17,South,180,0.4,0.4,91,0.00,,,0.00,WUHU216HW,2013-06-23 08:35:00,
2013-06-23 04:00:00,65.5,62.2,30.16,SW,225,0.0,0.0,89,0.00,,,0.00,WUHU216HW,2013-06-23 09:00:00,
2013-06-23 04:05:00,65.5,62.2,30.16,SW,225,0.0,0.0,89,0.00,,,0.00,WUHU216HW,2013-06-23 09:05:00,
2013-06-23 04:10:00,65.5,62.2,30.16,SW,225,0.0,0.0,89,0.00,,,0.00,WUHU216HW,2013-06-23 09:10:00,
2013-06-23 04:30:00,65.2,61.8,30.15,SE,135,1.1,1.1,89,0.00,,,0.00,WUHU216HW,2013-06-23 09:30:00,
2013-06-23 04:35:00,65.2,61.8,30.15,SE,135,1.1,1.1,89,0.00,,,0.00,WUHU216HW,2013-06-23 09:35:00,
2013-06-23 05:00:00,64.6,61.8,30.15,SSE,158,1.1,1.1,90,0.00,,,0.00,WUHU216HW,2013-06-23 10:00:00,
2013-06-23 05:05:00,64.6,61.8,30.15,SSE,158,1.1,1.1,90,0.00,,,0.00,WUHU216HW,2013-06-23 10:05:00,
2013-06-23 05:10:00,64.6,61.8,30.15,SSE,158,1.1,1.1,90,0.00,,,0.00,WUHU216HW,2013-06-23 10:10:00,
2013-06-23 05:30:00,64.4,61.6,30.14,SE,135,1.1,1.1,90,0.00,,,0.00,WUHU216HW,2013-06-23 10:30:00,
2013-06-23 05:35:00,64.4,61.6,30.14,SE,135,1.1,1.1,90,0.00,,,0.00,WUHU216HW,2013-06-23 10:35:00,
2013-06-23 06:00:00,64.6,61.8,30.13,SSE,158,2.5,2.5,90,0.00,,,0.00,WUHU216HW,2013-06-23 11:00:00,
2013-06-23 06:05:00,64.6,61.8,30.13,SSE,158,2.5,2.5,90,0.00,,,0.00,WUHU216HW,2013-06-23 11:05:00,
2013-06-23 06:10:00,64.6,61.8,30.13,SSE,158,2.5,2.5,90,0.00,,,0.00,WUHU216HW,2013-06-23 11:10:00,
2013-06-23 06:30:00,64.8,61.6,30.13,SE,135,1.3,1.3,89,0.00,,,0.00,WUHU216HW,2013-06-23 11:30:00,
2013-06-23 06:35:00,64.8,61.6,30.13,SE,135,1.3,1.3,89,0.00,,,0.00,WUHU216HW,2013-06-23 11:35:00,
2013-06-23 07:00:00,64.6,61.4,30.14,South,180,1.1,1.1,89,0.02,,,0.00,WUHU216HW,2013-06-23 12:00:00,
2013-06-23 07:05:00,64.6,61.4,30.14,South,180,1.1,1.1,89,0.02,,,0.02,WUHU216HW,2013-06-23 12:05:00,
2013-06-23 07:10:00,64.6,61.4,30.14,South,180,1.1,1.1,89,0.02,,,0.02,WUHU216HW,2013-06-23 12:10:00,
2013-06-23 07:30:00,65.2,62.2,30.15,SSE,158,0.0,0.0,90,0.03,,,0.02,WUHU216HW,2013-06-23 12:30:00,
2013-06-23 07:35:00,65.2,62.2,30.15,SSE,158,0.0,0.0,90,0.03,,,0.02,WUHU216HW,2013-06-23 12:35:00,
2013-06-23 08:00:00,67.0,63.5,30.16,SE,135,0.2,0.2,89,0.01,,,0.03,WUHU216HW,2013-06-23 13:00:00,
2013-06-23 08:05:00,67.0,63.5,30.16,SE,135,0.2,0.2,89,0.01,,,0.03,WUHU216HW,2013-06-23 13:05:00,
2013-06-23 08:30:00,67.7,64.0,30.16,SE,135,0.2,0.2,88,0.01,,,0.03,WUHU216HW,2013-06-23 13:30:00,
2013-06-23 08:35:00,67.7,64.0,30.16,SE,135,0.2,0.2,88,0.01,,,0.03,WUHU216HW,2013-06-23 13:35:00,
2013-06-23 09:01:00,69.3,64.9,30.15,SE,135,1.8,1.8,86,0.01,,,0.04,WUHU216HW,2013-06-23 14:01:00,
2013-06-23 09:06:00,69.3,64.9,30.15,SE,135,1.8,1.8,86,0.01,,,0.04,WUHU216HW,2013-06-23 14:06:00,
2013-06-23 09:30:00,76.9,68.3,30.14,SE,135,2.7,2.7,75,0.00,,,0.04,WUHU216HW,2013-06-23 14:30:00,
2013-06-23 09:35:00,76.9,68.3,30.14,SE,135,2.7,2.7,75,0.00,,,0.04,WUHU216HW,2013-06-23 14:35:00,
2013-06-23 10:00:00,77.9,66.1,30.13,SSW,203,4.3,4.3,67,0.00,,,0.04,WUHU216HW,2013-06-23 15:00:00,
2013-06-23 10:05:00,77.9,66.1,30.13,SSW,203,4.3,4.3,67,0.00,,,0.04,WUHU216HW,2013-06-23 15:05:00,
2013-06-23 10:30:00,76.9,65.1,30.12,SSE,158,4.0,4.0,67,0.00,,,0.04,WUHU216HW,2013-06-23 15:30:00,
2013-06-23 10:35:00,76.9,65.1,30.12,SSE,158,4.0,4.0,67,0.00,,,0.04,WUHU216HW,2013-06-23 15:35:00,
2013-06-23 11:00:00,77.6,65.8,30.11,SE,135,2.7,2.7,67,0.00,,,0.04,WUHU216HW,2013-06-23 16:00:00,
2013-06-23 11:05:00,77.6,65.8,30.11,SE,135,2.7,2.7,67,0.00,,,0.04,WUHU216HW,2013-06-23 16:05:00,
2013-06-23 11:30:00,79.2,66.0,30.09,ESE,113,8.7,8.7,64,0.00,,,0.04,WUHU216HW,2013-06-23 16:30:00,
2013-06-23 11:35:00,79.2,66.0,30.09,ESE,113,8.7,8.7,64,0.00,,,0.04,WUHU216HW,2013-06-23 16:35:00,
2013-06-23 12:01:00,80.3,67.4,30.09,West,270,3.6,3.6,65,0.00,,,0.04,WUHU216HW,2013-06-23 17:01:00,
2013-06-23 12:02:00,80.3,67.4,30.09,West,270,3.6,3.6,65,0.00,,,0.04,WUHU216HW,2013-06-23 17:02:00,
2013-06-23 12:03:00,80.3,67.4,30.09,West,270,3.6,3.6,65,0.00,,,0.04,WUHU216HW,2013-06-23 17:03:00,
2013-06-23 12:08:00,80.3,67.4,30.09,West,270,3.6,3.6,65,0.00,,,0.04,WUHU216HW,2013-06-23 17:08:00,
2013-06-23 12:30:00,79.4,67.1,30.10,SE,135,6.7,6.7,66,0.00,,,0.04,WUHU216HW,2013-06-23 17:30:00,
2013-06-23 12:35:00,79.4,67.1,30.10,SE,135,6.7,6.7,66,0.00,,,0.04,WUHU216HW,2013-06-23 17:35:00,
2013-06-23 13:00:00,78.8,67.8,30.09,South,180,5.1,5.1,69,0.00,,,0.04,WUHU216HW,2013-06-23 18:00:00,
2013-06-23 13:05:00,78.8,67.8,30.09,South,180,5.1,5.1,69,0.00,,,0.04,WUHU216HW,2013-06-23 18:05:00,
2013-06-23 13:30:00,79.4,68.8,30.09,WSW,248,8.7,8.7,70,0.00,,,0.04,WUHU216HW,2013-06-23 18:30:00,
2013-06-23 13:35:00,79.4,68.8,30.09,WSW,248,8.7,8.7,70,0.00,,,0.04,WUHU216HW,2013-06-23 18:35:00,
2013-06-23 14:00:00,80.1,69.0,30.09,WSW,248,3.4,3.4,69,0.00,,,0.04,WUHU216HW,2013-06-23 19:00:00,
2013-06-23 14:05:00,80.1,69.0,30.09,WSW,248,3.4,3.4,69,0.00,,,0.04,WUHU216HW,2013-06-23 19:05:00,
2013-06-23 14:30:00,79.7,69.5,30.08,SSE,158,1.3,1.3,71,0.00,,,0.04,WUHU216HW,2013-06-23 19:30:00,
2013-06-23 14:35:00,79.7,69.5,30.08,SSE,158,1.3,1.3,71,0.00,,,0.04,WUHU216HW,2013-06-23 19:35:00,
2013-06-23 15:00:00,79.7,68.2,30.09,South,180,2.5,2.5,68,0.00,,,0.04,WUHU216HW,2013-06-23 20:00:00,
2013-06-23 15:05:00,79.7,68.2,30.09,South,180,2.5,2.5,68,0.00,,,0.04,WUHU216HW,2013-06-23 20:05:00,
2013-06-23 15:30:00,78.5,67.5,30.10,SE,135,7.2,7.2,69,0.00,,,0.04,WUHU216HW,2013-06-23 20:30:00,
2013-06-23 15:35:00,78.5,67.5,30.10,SE,135,7.2,7.2,69,0.00,,,0.04,WUHU216HW,2013-06-23 20:35:00,
2013-06-23 16:00:00,77.6,69.0,30.09,SSE,158,1.1,1.1,75,0.01,,,0.04,WUHU216HW,2013-06-23 21:00:00,
2013-06-23 16:05:00,77.6,69.0,30.09,SSE,158,1.1,1.1,75,0.01,,,0.04,WUHU216HW,2013-06-23 21:05:00,
2013-06-23 16:30:00,78.7,69.2,30.08,WNW,293,1.1,1.1,73,0.02,,,0.05,WUHU216HW,2013-06-23 21:30:00,
2013-06-23 16:35:00,78.7,69.2,30.08,WNW,293,1.1,1.1,73,0.02,,,0.05,WUHU216HW,2013-06-23 21:35:00,
2013-06-23 17:00:00,79.2,68.1,30.09,NE,45,3.4,3.4,69,0.02,,,0.06,WUHU216HW,2013-06-23 22:00:00,
2013-06-23 17:05:00,79.2,68.1,30.09,NE,45,3.4,3.4,69,0.02,,,0.07,WUHU216HW,2013-06-23 22:05:00,
2013-06-23 17:10:00,79.2,68.1,30.09,NE,45,3.4,3.4,69,0.02,,,0.07,WUHU216HW,2013-06-23 22:10:00,
2013-06-23 17:30:00,78.8,67.0,30.09,North,0,2.7,2.7,67,0.01,,,0.07,WUHU216HW,2013-06-23 22:30:00,
2013-06-23 17:35:00,78.8,67.0,30.09,North,0,2.7,2.7,67,0.01,,,0.07,WUHU216HW,2013-06-23 22:35:00,
2013-06-23 18:00:00,79.2,67.7,30.09,NW,315,1.1,1.1,68,0.01,,,0.07,WUHU216HW,2013-06-23 23:00:00,
2013-06-23 18:05:00,79.2,67.7,30.09,NW,315,1.1,1.1,68,0.01,,,0.08,WUHU216HW,2013-06-23 23:05:00,
2013-06-23 18:10:00,79.2,67.7,30.09,NW,315,1.1,1.1,68,0.01,,,0.08,WUHU216HW,2013-06-23 23:10:00,
2013-06-23 18:30:00,78.3,66.9,30.09,SSW,203,4.5,4.5,68,0.01,,,0.08,WUHU216HW,2013-06-23 23:30:00,
2013-06-23 18:35:00,78.3,66.9,30.09,SSW,203,4.5,4.5,68,0.01,,,0.08,WUHU216HW,2013-06-23 23:35:00,
2013-06-23 19:00:00,77.8,65.5,30.10,South,180,0.7,0.7,66,0.01,,,0.08,WUHU216HW,2013-06-24 00:00:00,
2013-06-23 19:05:00,77.8,65.5,30.10,South,180,0.7,0.7,66,0.01,,,0.09,WUHU216HW,2013-06-24 00:05:00,
2013-06-23 19:10:00,77.8,65.5,30.10,South,180,0.7,0.7,66,0.01,,,0.09,WUHU216HW,2013-06-24 00:10:00,
2013-06-23 19:30:00,77.4,65.2,30.11,WSW,248,2.0,2.0,66,0.01,,,0.09,WUHU216HW,2013-06-24 00:30:00,
2013-06-23 19:35:00,77.4,65.2,30.11,WSW,248,2.0,2.0,66,0.01,,,0.09,WUHU216HW,2013-06-24 00:35:00,
2013-06-23 20:00:00,76.3,64.1,30.12,NNW,338,0.2,0.2,66,0.00,,,0.09,WUHU216HW,2013-06-24 01:00:00,
2013-06-23 20:05:00,76.3,64.1,30.12,NNW,338,0.2,0.2,66,0.00,,,0.09,WUHU216HW,2013-06-24 01:05:00,
2013-06-23 20:10:00,76.3,64.1,30.12,NNW,338,0.2,0.2,66,0.00,,,0.09,WUHU216HW,2013-06-24 01:10:00,
2013-06-23 20:30:00,75.4,64.1,30.13,WSW,248,1.1,1.1,68,0.00,,,0.09,WUHU216HW,2013-06-24 01:30:00,
2013-06-23 20:35:00,75.4,64.1,30.13,WSW,248,1.1,1.1,68,0.00,,,0.09,WUHU216HW,2013-06-24 01:35:00,
2013-06-23 21:00:00,74.2,63.4,30.14,NNW,338,0.0,0.0,69,0.00,,,0.09,WUHU216HW,2013-06-24 02:00:00,
2013-06-23 21:05:00,74.2,63.4,30.14,NNW,338,0.0,0.0,69,0.00,,,0.09,WUHU216HW,2013-06-24 02:05:00,
2013-06-23 21:10:00,74.2,63.4,30.14,NNW,338,0.0,0.0,69,0.00,,,0.09,WUHU216HW,2013-06-24 02:10:00,
2013-06-23 21:30:00,72.4,62.8,30.15,South,180,0.0,0.0,72,0.00,,,0.09,WUHU216HW,2013-06-24 02:30:00,
2013-06-23 21:35:00,72.4,62.8,30.15,South,180,0.0,0.0,72,0.00,,,0.09,WUHU216HW,2013-06-24 02:35:00,
2013-06-23 22:00:00,71.1,62.4,30.16,SSE,158,0.7,0.7,74,0.00,,,0.09,WUHU216HW,2013-06-24 03:00:00,
2013-06-23 22:05:00,71.1,62.4,30.16,SSE,158,0.2,0.7,74,0.00,,,0.09,WUHU216HW,2013-06-24 03:05:00,
2013-06-23 22:10:00,71.1,62.4,30.16,SSE,158,0.2,0.2,74,0.00,,,0.09,WUHU216HW,2013-06-24 03:10:00,
2013-06-23 22:30:00,70.4,61.7,30.16,WSW,248,0.0,0.0,74,0.00,,,0.09,WUHU216HW,2013-06-24 03:30:00,
2013-06-23 22:35:00,70.4,61.7,30.16,WSW,248,0.0,0.0,74,0.00,,,0.09,WUHU216HW,2013-06-24 03:35:00,
2013-06-23 23:00:00,69.3,61.4,30.17,WSW,248,0.2,0.2,76,0.00,,,0.09,WUHU216HW,2013-06-24 04:00:00,
2013-06-23 23:01:00,69.3,61.4,30.17,WSW,248,0.2,0.2,76,0.00,,,0.09,WUHU216HW,2013-06-24 04:01:00,
2013-06-23 23:06:00,69.3,61.4,30.17,WSW,248,0.2,0.2,76,0.00,,,0.09,WUHU216HW,2013-06-24 04:06:00,
2013-06-23 23:30:00,68.6,61.5,30.17,SSE,158,0.0,0.0,78,0.00,,,0.09,WUHU216HW,2013-06-24 04:30:00,
2013-06-23 23:35:00,68.6,61.5,30.17,SSE,158,0.0,0.0,78,0.00,,,0.09,WUHU216HW,2013-06-24 04:35:00,